Location: Bachas
(43.2439°N, 0.9375°E)
Time: 04:10:49
(UTC+00:00)

SL-16 R/B - Pass Details

Date: 18 February 2020
Orbit: 843 x 847 km, 71.0° (Epoch: 09 April)

Event Time Altitude Azimuth Distance (km) Brightness Sun altitude
Exits shadow 04:29:11 59° 329° (NNW) 977 2.3 -26.4°
Drops below altitude 10° 04:34:12 10° 19° (NNE) 2,474 4.9 -25.5°
Sets 04:36:42 0° 23° (NNE) 3,412 5.8 -25.0°
